Home   Weather   Pittsfield   Past weeks
Flag for USA

Past Weather in Pittsfield, Massachusetts, USA — Yesterday and Last 2 Weeks

Now
49 °F

Passing clouds.


Feels Like: 49 °F
Forecast: 75 / 51 °F
Wind: No wind

Location: Pittsfield Municipal Airport

Current Time: May 19, 2019 at 4:33:49 am

Latest Report: May 19, 2019 at 3:54 am


Visibility: 10 mi

Pressure: 29.99 "Hg

Humidity: 86%

Dew Point: 45 °F

Location of PittsfieldLocation

Past Weather in Pittsfield — Graph

°F

Pittsfield Temperature Yesterday

Maximum temperature yesterday: 68 °F (at 3:54 pm)
Minimum temperature yesterday: 45 °F (at 5:54 am)
Average temperature yesterday: 57 °F

High & Low Weather Summary for the Past Weeks

 TemperatureHumidityPressure
High70 °F (May 7, 12:54 pm)96% (May 4, 7:04 am)30.32 "Hg (May 4, 7:04 am)
Low36 °F (May 14, 2:30 am)28% (May 8, 3:54 pm)29.65 "Hg (May 17, 4:54 pm)
Average52 °F72%29.92 "Hg
* Reported May 4 2:54 am — May 19 2:54 am, Pittsfield. Weather by CustomWeather, © 2019

Note: Actual official high and low records may vary slightly from our data, if they occured in-between our weather recording intervals... More about our weather records

Advertising

Pittsfield Weather History for the Previous 24 Hours

Scroll right to see more
 ConditionsComfort  
Time TempWeatherWind HumidityBarometerVisibility
2:54 am
Sun, May 19
50 °FPassing clouds.No wind80%29.98 "Hg10 mi
1:54 am50 °FClear.No wind80%29.99 "Hg10 mi
12:54 am52 °FOvercast.No wind75%30.00 "Hg10 mi
11:54 pm
Sat, May 18
52 °FPassing clouds.No wind72%30.00 "Hg10 mi
10:54 pm56 °FPassing clouds.3 mph67%30.01 "Hg10 mi
9:54 pm59 °FOvercast.No wind60%30.01 "Hg10 mi
8:54 pm61 °FOvercast.No wind48%29.98 "Hg10 mi
7:54 pm62 °FPartly sunny.No wind46%29.96 "Hg10 mi
6:54 pm68 °FSunny.3 mph30%29.94 "Hg10 mi
5:54 pm68 °FSunny.3 mph32%29.94 "Hg10 mi
4:54 pm68 °FSunny.7 mph30%29.94 "Hg10 mi
3:54 pm68 °FSunny.N/A31%29.92 "Hg10 mi
2:54 pm67 °FSunny.6 mph32%29.93 "Hg10 mi
1:54 pm66 °FSunny.9 mph34%29.93 "Hg10 mi
12:54 pm63 °FSunny.6 mph40%29.94 "Hg10 mi
11:54 am62 °FSunny.10 mph43%29.95 "Hg10 mi
10:54 am60 °FSunny.10 mph46%29.95 "Hg10 mi
9:54 am57 °FSunny.8 mph51%29.94 "Hg10 mi
8:54 am54 °FSunny.5 mph55%29.93 "Hg10 mi
7:54 am51 °FSunny.8 mph61%29.91 "Hg10 mi
6:54 am48 °FSunny.6 mph68%29.90 "Hg10 mi
5:54 am45 °FSunny.7 mph76%29.87 "Hg10 mi
4:54 am46 °FClear.6 mph77%29.83 "Hg10 mi
Weather by CustomWeather, © 2019

See weather overview